FW1737 Weather Reports


Display with metric or nautical units.
time (UTC)temp
F
wind
direction
speed
MPH
gust
MPH
rain 1hr
in
rain 24hr
in
rain mn
in
humidity
%
barometer
mb
20260831021527 64 222 2.0 5.0 0.00 0.00 0.00 95 1010.0
20260831020024 63 229 2.0 5.0 0.00 0.00 0.00 94 1010.2
20260831014526 63 226 2.0 5.0 0.00 0.00 0.00 95 1010.3
20260831013018 63 228 4.0 5.0 0.00 0.00 0.00 94 1010.7
20260831011524 63 232 2.0 4.0 0.00 0.00 0.00 94 1010.8
20260831010016 63 234 2.0 5.0 0.00 0.00 0.00 94 1010.7
20260831004515 63 249 2.0 3.0 0.00 0.00 0.00 95 1010.9
20260831003014 63 249 1.0 4.0 0.00 0.00 0.00 95 1011.1
20260831001513 63 249 2.0 4.0 0.00 0.00 0.00 95 1011.3
20260831000013 63 249 1.0 4.0 0.00 0.00 0.00 94 1011.4
20260830234512 64 249 3.0 5.0 0.00 0.00 0.00 94 1011.2
20260830233012 64 250 1.0 2.0 0.00 0.00 0.00 93 1011.1
20260830231512 64 250 2.0 4.0 0.00 0.00 0.00 93 1011.2
20260830230011 64 250 2.0 4.0 0.00 0.00 0.00 93 1011.1
20260830224511 65 250 2.0 4.0 0.00 0.00 0.00 92 1010.9
20260830223010 66 251 1.0 3.0 0.00 0.00 0.00 91 1011.3
20260830221508 66 251 1.0 2.0 0.00 0.00 0.00 89 1011.3
20260830220007 67 251 1.0 3.0 0.00 0.00 0.00 86 1011.3
20260830214508 68 251 1.0 3.0 0.00 0.00 0.00 83 1011.3
20260830213011 71 251 1.0 3.0 0.00 0.00 0.00 78 1011.3
20260830211504 72 250 3.0 7.0 0.00 0.00 0.00 70 1011.7
20260830210004 71 268 0.0 3.0 0.00 0.00 0.00 75 1011.5
20260830204501 71 264 1.0 4.0 0.00 0.00 0.00 77 1011.6
20260830203103 71 254 2.0 3.0 0.00 0.00 0.00 77 1011.8
20260830201600 71 239 0.0 3.0 0.00 0.00 0.00 76 1012.1
20260830200055 71 239 1.0 2.0 0.00 0.00 0.00 77 1012.0
20260830194553 71 239 1.0 4.0 0.00 0.00 0.00 75 1012.0
20260830193053 71 240 2.0 5.0 0.00 0.00 0.00 70 1012.1
20260830191553 72 259 1.0 4.0 0.00 0.00 0.00 67 1012.1
20260830190123 72 247 1.0 5.0 0.00 0.00 0.00 66 1012.2
20260830184607 73 246 1.0 7.0 0.00 0.00 0.00 65 1012.1
20260830183059 74 294 2.0 9.0 0.00 0.00 0.00 61 1012.5
20260830181547 74 258 4.0 10.0 0.00 0.00 0.00 57 1012.6
20260830180046 75 271 4.0 10.0 0.00 0.00 0.00 55 1012.7
20260830174558 76 226 7.0 11.0 0.00 0.00 0.00 54 1012.7
20260830173044 77 223 7.0 12.0 0.00 0.00 0.00 53 1012.7
20260830171542 77 240 8.0 14.0 0.00 0.00 0.00 54 1012.9
20260830170039 76 202 9.0 16.0 0.00 0.00 0.00 53 1013.2
20260830164538 76 215 9.0 18.0 0.00 0.00 0.00 54 1013.2
20260830163038 76 261 8.0 15.0 0.00 0.00 0.00 55 1013.3
20260830161537 75 175 7.0 17.0 0.00 0.00 0.00 55 1013.6
20260830160040 75 273 9.0 19.0 0.00 0.00 0.00 57 1014.0
20260830154532 75 207 7.0 18.0 0.00 0.00 0.00 55 1014.2
20260830153031 75 250 10.0 16.0 0.00 0.00 0.00 52 1014.3
20260830151530 75 178 9.0 17.0 0.00 0.00 0.00 55 1014.4
20260830150027 74 202 9.0 18.0 0.00 0.00 0.00 56 1014.5
20260830144529 75 220 6.0 11.0 0.00 0.00 0.00 58 1014.7
20260830143022 74 244 6.0 15.0 0.00 0.00 0.00 59 1014.9
20260830141518 73 215 7.0 14.0 0.00 0.00 0.00 64 1015.2
20260830140016 72 227 7.0 14.0 0.00 0.00 0.00 67 1015.3
20260830134524 71 207 7.0 11.0 0.00 0.00 0.00 71 1015.6
20260830133010 69 244 4.0 9.0 0.00 0.00 0.00 72 1015.7
20260830131507 69 212 6.0 10.0 0.00 0.00 0.00 73 1015.8
20260830130004 67 256 3.0 8.0 0.00 0.00 0.00 79 1015.8
20260830124601 67 182 5.0 10.0 0.00 0.00 0.00 79 1015.8
20260830123057 65 238 5.0 7.0 0.00 0.00 0.00 85 1016.0
20260830121552 62 206 4.0 7.0 0.00 0.00 0.00 94 1016.3
20260830120054 60 235 1.0 3.0 0.00 0.00 0.00 100 1016.4
20260830114545 56 235 0.0 2.0 0.00 0.00 0.00 100 1016.3
20260830113040 54 235 0.0 0.0 0.00 0.00 0.00 100 1016.8
20260830111536 52 235 0.0 0.0 0.00 0.00 0.00 100 1016.9
20260830110032 51 235 0.0 0.0 0.00 0.00 0.00 100 1016.9
20260830104553 49 235 0.0 0.0 0.00 0.00 0.00 100 1017.0
20260830103031 48 235 0.0 0.0 0.00 0.00 0.00 100 1017.0
20260830101530 47 235 0.0 0.0 0.00 0.00 0.00 100 1017.1
20260830100029 44 235 0.0 0.0 0.00 0.00 0.00 100 1017.0
20260830094531 43 235 0.0 0.0 0.00 0.08 0.00 100 1016.9
20260830093037 43 235 0.0 0.0 0.00 0.08 0.00 100 1017.0
20260830091528 43 235 0.0 0.0 0.00 0.08 0.00 100 1017.0
20260830090026 43 235 0.0 0.0 0.00 0.08 0.00 100 1016.8
20260830084525 43 235 0.0 0.0 0.00 0.16 0.00 100 1016.9
20260830083036 43 235 0.0 0.0 0.00 0.16 0.00 100 1016.8
20260830081523 43 235 0.0 0.0 0.00 0.16 0.00 100 1016.8
20260830080022 43 235 0.0 0.0 0.00 0.16 0.00 100 1016.9
20260830074520 43 235 0.0 0.0 0.00 0.16 0.00 100 1016.9
20260830073019 43 235 0.0 0.0 0.00 0.16 0.00 99 1016.9
20260830071524 44 235 0.0 0.0 0.00 0.16 0.00 100 1016.9
20260830070019 44 235 0.0 0.0 0.00 0.16 0.00 100 1017.0
20260830064516 44 235 0.0 0.0 0.00 0.16 0.00 99 1017.1
20260830063011 45 235 0.0 0.0 0.00 0.16 0.00 100 1017.1
20260830061509 45 235 0.0 0.0 0.00 0.16 0.00 100 1017.1
20260830060013 45 235 0.0 0.0 0.00 0.16 0.00 100 1017.2
20260830054506 45 235 0.0 0.0 0.00 0.16 0.00 100 1017.2
20260830053010 46 235 0.0 0.0 0.00 0.16 0.00 99 1017.4
20260830051503 46 235 0.0 0.0 0.00 0.16 0.00 99 1017.5
20260830050001 46 235 0.0 0.0 0.00 0.16 0.00 100 1017.6
20260830044600 46 235 0.0 0.0 0.00 0.16 0.00 99 1017.6
20260830043057 47 235 0.0 0.0 0.00 0.16 0.00 99 1017.7
20260830041603 48 235 0.0 0.0 0.00 0.16 0.00 99 1017.8
20260830040052 48 235 0.0 0.0 0.00 0.16 0.00 99 1017.7
20260830034603 48 235 0.0 0.0 0.00 0.16 0.00 99 1017.7
20260830033047 49 235 0.0 0.0 0.00 0.16 0.00 99 1017.7
20260830031546 50 235 1.0 3.0 0.00 0.16 0.00 99 1017.7
20260830030042 50 235 0.0 0.0 0.00 0.16 0.00 99 1017.6
20260830024541 50 235 1.0 3.0 0.00 0.16 0.16 99 1017.7
20260830023039 50 235 0.0 2.0 0.00 0.16 0.16 98 1017.9